a
b
c
d

Обмен USD/RUB Москва, Пролетарская

В данном разделе сайта представлен курс обмена доллара в Москве на текущий день. Статистические данные взяты из открытых источников. Для того, чтобы удостовериться в актуальности представленных сведений обмена USD/RUB в Москве на конкретный момент времени, свяжитесь с представителями банка по указанному в карточке телефону. Для просмотра номера телефона и других сведений о банке достаточно кликнуть на его название в общей таблице. Рынок наличной валюты достаточно подвижен, поэтому данные о курсе обмена доллара и рубля постоянно обновляются. В разделе "Рынок наличной валюты" Вы сможете изучить курс покупки-продажи для разных банков и выбрать наиболее выгодный вариант обмена валюты.


Показать полностью

Обмен Долларов США и Российских рублей в Москве у метро Пролетарская


Название банка Покупка Продажа Сумма Комм. Время
Банк СОЮЗ (АО) ДО "Волгоградский проспект" 65,4 66,4 1.0 нет 26 сен.
"Нацинвестпромбанк" (АО) ДО "Павелецкий" 65,25 66,25 1.0 нет 26 сен.
ПАО БАНК "МОСКВА-СИТИ" 62 63,3 1001.0 нет 29 июн.
ПАО БАНК "МОСКВА-СИТИ" 62 63,3 1.0 нет 29 июн.
ПАО БАНК "МОСКВА-СИТИ" 62 63,3 10001.0 нет 29 июн.
АО КБ "ЮНИСТРИМ оквку № 325 63 63,3 20000.0 нет 23 июн.
АО КБ "ЮНИСТРИМ оквку № 325 63 63,3 10000.0 нет 23 июн.
АО КБ "ЮНИСТРИМ оквку № 325 62,8 63,5 1000.0 нет 23 июн.
АКБ "НОВЫЙ КРЕДИТНЫЙ СОЮЗ" (АО) оквку № 14 (ВОЛГОГРАДСКИЙ) 56,9 57,2 10001.0 нет 13 мар.
ОАО МАБ "Темпбанк" ул. Крутицкий вал 54 61 1.0 нет 29.09.2017
"РИАБАНК" (АО) оквку "Площадь Ильича" 59,61 59,8 10000.0 нет 16.08.2017
"РИАБАНК" (АО) оквку "Площадь Ильича" 59,61 59,8 50000.0 нет 16.08.2017
"РИАБАНК" (АО) оквку "Площадь Ильича" 59,45 59,95 1000.0 нет 16.08.2017
АО "РФИ БАНК" оквку № 107 60,4 60,53 100000.0 нет 04.08.2017
АО "РФИ БАНК" оквку № 107 60,4 60,53 1000.0 нет 04.08.2017
АО "РФИ БАНК" оквку № 107 60,4 60,53 10000.0 нет 04.08.2017
БАНК "РЕЗЕРВ" (АО) ККО "Столичный" 59,85 60,95 100.0 нет 02.08.2017
"РИАБАНК" (АО) оквку "Нижегородская 8" 0 60,55 3000.0 нет 07.07.2017
"РИАБАНК" (АО) оквку "Нижегородская 8" 0 60,55 1000.0 нет 07.07.2017
АО "НДБанк" оквку "На Крутицком" 58,9 59,2 5000 нет 13.03.2017
АО "НДБанк" оквку "На Крутицком" 58,9 59,2 1000 нет 13.03.2017
АО "НДБанк" оквку "На Крутицком" 59,17 59,32 10000 нет 12.03.2017
АО БАНК "ТГБ" оквку "3-й Крутицкий переулок 13" 58,37 58,69 5000 нет 04.03.2017
АО БАНК "ТГБ" оквку "3-й Крутицкий переулок 13" 58,37 58,69 10000 нет 04.03.2017
АО БАНК "ТГБ" оквку "3-й Крутицкий переулок 13" 58,66 58,95 1000 нет 03.03.2017
АКБ "ГЛОБУС" (ОАО) оквку №5 59 59,7 1 нет 08.02.2017
КБ "Нацинвестпромбанк" (АО) ДО "Павелецкий" 63,4 64,4 1000 нет 07.12.2016
КБ "Нацинвестпромбанк" (АО) ДО "Павелецкий" 63,4 64,4 1 нет 07.12.2016
КБ "Нацинвестпромбанк" (АО) ДО "Павелецкий" 63,4 64,4 10000 нет 06.12.2016
КБ "Нацинвестпромбанк" (АО) ДО "Павелецкий" 63,4 64,4 5000 нет 06.12.2016
КБ "Нацинвестпромбанк" (АО) ДО "Павелецкий" 63,4 64,4 100 нет 06.12.2016
ПАО АКБ "РФА" оквку "3-й Крутицкий пер., д. 13" 63,6699 64,5901 1000 нет 23.11.2016
ПАО АКБ "РФА" оквку "3-й Крутицкий пер., д. 13" 63,6699 64,5901 5000 нет 23.11.2016
ПАО АКБ "РФА" оквку "3-й Крутицкий пер., д. 13" 63,6699 64,5901 10000 нет 23.11.2016
ООО КБ "Камский горизонт" ККО "Крутицкий18" 62,7 63,7 1000 нет 02.10.2016
ООО КБ "Камский горизонт" ККО "Крутицкий18" 63 63,65 10000 нет 02.10.2016
ООО КБ "Камский горизонт" ККО "Крутицкий18" 62,7 63,7 5000 нет 02.10.2016
ОАО МАБ "Темпбанк" ул. Крутицкий вал 67,6 69,1 1 Нет 07.09.2015
"РФИ БАНК" ЗАО оквку № 107 68,1699 68,2947 10000 Нет 07.09.2015
"РФИ БАНК" ЗАО оквку № 107 68,1699 68,2947 100000 Нет 07.09.2015
"РФИ БАНК" ЗАО оквку № 107 67,9099 68,2947 1000 Нет 07.09.2015
ООО "ЮРБ" оквку № 7 67 0 1000 Нет 07.09.2015
ООО "ЮРБ" оквку № 7 67 0 10001 Нет 07.09.2015
ООО "ЮРБ" оквку № 7 67 0 5000 Нет 07.09.2015
АО "Гринкомбанк" оквку "Площадь Ильича" 68,1099 68,8 20000 Нет 07.09.2015
АО "Гринкомбанк" оквку "Площадь Ильича" 68,0099 68,8 1000 Нет 07.09.2015
АО "Гринкомбанк" оквку "Площадь Ильича" 68,1099 68,8 10000 Нет 07.09.2015
ООО РНКО "Майма" 67,9 68,9 1 Нет 07.09.2015
ООО КБ "Ренессанс" оквку "3-й Крутицкий пер., д. 13" 0 68,0444 1000 Нет 06.09.2015
ООО КБ "Ренессанс" оквку "3-й Крутицкий пер., д. 13" 0 68,0444 10000 Нет 06.09.2015

Погода сейчас

+17°C
Солнечно, влажность 62%
Москва